Weather History for Glasgow, KY

Change the Weather History Date:

Saturday, February 1, 2014

  Actual Average Record
Temperature  
Mean Temperature 54 °F -  
Max Temperature 62 °F 47 °F 70 °F (1967)
Min Temperature 46 °F 28 °F -5 °F (1971)
Degree Days  
Heating Degree Days 11    
Growing Degree Days 4 (Base 50)    
Moisture  
Dew Point 29 °F    
Average Humidity 42    
Maximum Humidity 68    
Minimum Humidity 26    
Precipitation  
Precipitation 0.00 in - - ()
Sea Level Pressure  
Sea Level Pressure 29.98 in    
Wind  
Wind Speed 9 mph (SSW)    
Max Wind Speed 17 mph    
Max Gust Speed 24 mph    
Visibility 10 miles    
Events Rain    
Averages and records for this station are not official NWS values.
T = Trace of Precipitation, MM = Missing Value Source: NWS Daily Summary

Daily Weather History Graph

Daily Weather History Graph

Search for Another Location

Airport:

Trip Planner

Search our weather history database for the weather conditions in past years. The results will help you decide how hot, cold, wet, or windy it might be!

Date:

Astronomy

Feb. 01, 2014 Rise Set
Actual Time 6:46 AM CST 5:08 PM CST
Civil Twilight 6:19 AM CST 5:36 PM CST
Nautical Twilight 5:47 AM CST 6:07 PM CST
Astronomical Twilight 5:17 AM CST 6:37 PM CST
Moon 7:39 AM CST (2/1) 7:38 PM CST (2/1)
Length of Visible Light 11h 17m
Length of Day
10h 22m
Waxing Crescent, 5% of the Moon is Illuminated
Feb 1
Waxing Crescent
Feb 6
First Quarter
Feb 14
Full
Feb 22
Last Quarter
Mar 1
New

Hourly Weather History & Observations

Time (CST) Temp. Dew Point Humidity Pressure Visibility Wind Dir Wind Speed Gust Speed Precip Events Conditions
12:15 AM 46.9 °F 22.8 °F 39% 30.03 in 10.0 mi SSW 6.9 mph - N/A   Overcast
12:35 AM 47.3 °F 22.6 °F 38% 30.03 in 10.0 mi South 5.8 mph - N/A   Overcast
12:55 AM 47.3 °F 22.5 °F 38% 30.04 in 10.0 mi South 5.8 mph - N/A   Overcast
1:15 AM 47.3 °F 22.3 °F 37% 30.04 in 10.0 mi South 4.6 mph - N/A   Overcast
1:35 AM 47.3 °F 22.1 °F 37% 30.04 in 10.0 mi South 4.6 mph - N/A   Overcast
1:55 AM 47.1 °F 21.9 °F 37% 30.04 in 10.0 mi South 4.6 mph - N/A   Overcast
2:15 AM 47.1 °F 21.6 °F 36% 30.04 in 10.0 mi South 4.6 mph - N/A   Overcast
2:35 AM 46.9 °F 21.0 °F 36% 30.04 in 10.0 mi South 4.6 mph - N/A   Overcast
2:55 AM 47.1 °F 20.3 °F 35% 30.04 in 10.0 mi South 5.8 mph - N/A   Overcast
3:15 AM 47.1 °F 19.9 °F 34% 30.04 in 10.0 mi South 5.8 mph - N/A   Overcast
3:35 AM 47.1 °F 19.4 °F 33% 30.03 in 10.0 mi South 6.9 mph - N/A   Overcast
3:55 AM 47.1 °F 19.2 °F 33% 30.03 in 10.0 mi South 6.9 mph - N/A   Overcast
4:15 AM 47.3 °F 18.3 °F 32% 30.03 in 10.0 mi South 9.2 mph - N/A   Overcast
4:35 AM 47.3 °F 18.1 °F 31% 30.03 in 10.0 mi South 9.2 mph - N/A   Overcast
4:55 AM 47.3 °F 17.6 °F 31% 30.03 in 10.0 mi South 8.1 mph - N/A   Overcast
5:15 AM 47.3 °F 17.6 °F 31% 30.03 in 10.0 mi South 8.1 mph - N/A   Overcast
5:35 AM 47.5 °F 17.2 °F 30% 30.02 in 10.0 mi South 9.2 mph - N/A   Overcast
5:55 AM 47.7 °F 16.7 °F 29% 30.03 in 10.0 mi South 9.2 mph - N/A   Overcast
6:15 AM 47.5 °F 16.9 °F 30% 30.02 in 10.0 mi South 8.1 mph - N/A   Overcast
6:35 AM 47.3 °F 17.4 °F 30% 30.03 in 10.0 mi South 9.2 mph - N/A   Overcast
6:55 AM 47.3 °F 17.6 °F 31% 30.03 in 10.0 mi South 8.1 mph - N/A   Overcast
7:15 AM 47.7 °F 17.8 °F 30% 30.03 in 10.0 mi South 10.4 mph - N/A   Overcast
7:35 AM 47.8 °F 17.6 °F 30% 30.03 in 10.0 mi South 8.1 mph - N/A   Overcast
7:55 AM 48.4 °F 18.0 °F 30% 30.03 in 10.0 mi South 10.4 mph - N/A   Overcast
8:15 AM 49.6 °F 18.5 °F 29% 30.03 in 10.0 mi SSW 13.8 mph 19.6 mph N/A   Overcast
8:35 AM 50.4 °F 19.0 °F 29% 30.02 in 10.0 mi SSW 11.5 mph 18.4 mph N/A   Scattered Clouds
8:55 AM 51.1 °F 19.6 °F 29% 30.02 in 10.0 mi SSW 12.7 mph 19.6 mph N/A   Clear
9:15 AM 52.2 °F 20.1 °F 28% 30.01 in 10.0 mi SSW 16.1 mph 20.7 mph N/A   Clear
9:35 AM 52.9 °F 20.5 °F 28% 30.02 in 10.0 mi South 15.0 mph 21.9 mph N/A   Clear
9:55 AM 54.5 °F 20.8 °F 27% 30.02 in 10.0 mi SSW 17.3 mph 24.2 mph N/A   Clear
10:15 AM 55.4 °F 20.8 °F 26% 30.01 in 10.0 mi South 16.1 mph 23.0 mph N/A   Clear
10:35 AM 55.9 °F 21.4 °F 26% 30.01 in 10.0 mi SSW 13.8 mph 24.2 mph N/A   Clear
10:55 AM 56.8 °F 22.1 °F 26% 30.01 in 10.0 mi South 15.0 mph 18.4 mph N/A   Clear
11:15 AM 58.3 °F 23.2 °F 26% 29.99 in 10.0 mi SSW 17.3 mph 24.2 mph N/A   Clear
11:35 AM 59.7 °F 24.3 °F 26% 29.98 in 10.0 mi SSW 16.1 mph 21.9 mph N/A   Clear
11:55 AM 60.6 °F 25.5 °F 26% 29.97 in 10.0 mi SSW 11.5 mph 23.0 mph N/A   Clear
12:15 PM 61.0 °F 25.9 °F 26% 29.97 in 10.0 mi SSW 16.1 mph 23.0 mph N/A   Clear
12:35 PM 61.5 °F 26.8 °F 27% 29.96 in 10.0 mi South 12.7 mph 24.2 mph N/A   Clear
12:55 PM 62.1 °F 28.6 °F 28% 29.96 in 10.0 mi SSW 12.7 mph 19.6 mph N/A   Clear
1:15 PM 62.8 °F 29.5 °F 29% 29.94 in 10.0 mi SSW 15.0 mph 21.9 mph N/A   Clear
1:35 PM 61.9 °F 30.7 °F 31% 29.94 in 10.0 mi South 10.4 mph 18.4 mph N/A   Clear
1:55 PM 62.1 °F 32.9 °F 34% 29.94 in 10.0 mi SSW 13.8 mph 19.6 mph N/A   Clear
2:15 PM 61.5 °F 35.8 °F 38% 29.94 in 10.0 mi SSW 13.8 mph 19.6 mph N/A   Scattered Clouds
2:35 PM 61.0 °F 37.4 °F 42% 29.93 in 10.0 mi South 13.8 mph 21.9 mph N/A   Mostly Cloudy
2:55 PM 60.8 °F 38.3 °F 43% 29.93 in 10.0 mi South 12.7 mph 16.1 mph N/A   Scattered Clouds
3:15 PM 60.6 °F 39.0 °F 45% 29.93 in 10.0 mi SSW 12.7 mph 19.6 mph N/A   Clear
3:35 PM 61.0 °F 39.9 °F 46% 29.92 in 10.0 mi South 15.0 mph 23.0 mph N/A   Clear
3:55 PM 61.3 °F 40.5 °F 46% 29.93 in 10.0 mi SSW 13.8 mph 19.6 mph N/A   Clear
4:15 PM 60.8 °F 40.8 °F 48% 29.93 in 10.0 mi SSW 10.4 mph 16.1 mph N/A   Clear
4:35 PM 59.7 °F 41.0 °F 50% 29.93 in 10.0 mi SSW 9.2 mph 19.6 mph N/A   Clear
4:55 PM 58.3 °F 41.2 °F 53% 29.93 in 10.0 mi SSW 8.1 mph 18.4 mph N/A   Clear
5:15 PM 57.0 °F 41.2 °F 55% 29.93 in 10.0 mi SSW 11.5 mph 17.3 mph N/A   Clear
5:35 PM 56.1 °F 41.4 °F 58% 29.93 in 10.0 mi SSW 5.8 mph - N/A   Clear
5:55 PM 54.9 °F 41.0 °F 60% 29.94 in 10.0 mi SSW 5.8 mph - N/A   Clear
6:15 PM 54.3 °F 41.0 °F 61% 29.94 in 10.0 mi South 8.1 mph - N/A   Clear
6:35 PM 54.3 °F 41.0 °F 61% 29.94 in 10.0 mi South 8.1 mph - N/A   Scattered Clouds
6:55 PM 53.6 °F 41.0 °F 62% 29.94 in 10.0 mi South 8.1 mph - N/A   Mostly Cloudy
7:15 PM 53.6 °F 41.2 °F 63% 29.94 in 10.0 mi South 9.2 mph - N/A   Mostly Cloudy
7:35 PM 53.2 °F 41.2 °F 64% 29.95 in 10.0 mi South 8.1 mph - N/A   Scattered Clouds
7:55 PM 52.7 °F 41.0 °F 64% 29.95 in 10.0 mi South 5.8 mph - N/A   Clear
8:15 PM 52.0 °F 41.0 °F 66% 29.95 in 10.0 mi SSW 4.6 mph - N/A   Scattered Clouds
8:35 PM 52.3 °F 41.2 °F 66% 29.94 in 10.0 mi South 8.1 mph - N/A   Mostly Cloudy
8:55 PM 53.6 °F 41.5 °F 64% 29.95 in 10.0 mi South 10.4 mph - N/A   Overcast
9:15 PM 53.8 °F 41.5 °F 63% 29.96 in 10.0 mi South 9.2 mph - N/A   Overcast
9:35 PM 54.0 °F 41.7 °F 63% 29.96 in 10.0 mi SSW 5.8 mph - N/A Rain Rain
9:55 PM 52.9 °F 42.6 °F 68% 29.95 in 10.0 mi South 5.8 mph - N/A   Overcast
10:15 PM 53.4 °F 42.6 °F 67% 29.95 in 10.0 mi South 6.9 mph - N/A   Overcast
10:35 PM 53.8 °F 42.1 °F 65% 29.96 in 10.0 mi South 6.9 mph - N/A   Overcast
10:55 PM 53.6 °F 41.9 °F 65% 29.96 in 10.0 mi South 8.1 mph - N/A   Light Drizzle
11:15 PM 53.2 °F 41.5 °F 65% 29.96 in 10.0 mi South 5.8 mph - N/A   Overcast
11:35 PM 52.7 °F 41.4 °F 65% 29.95 in 10.0 mi South 6.9 mph - N/A   Overcast
11:55 PM 53.1 °F 41.7 °F 65% 29.94 in 10.0 mi South 5.8 mph - N/A   Overcast